珠海一号 OHS-04星 (ZHUHAI-1 OHS-04)

导读 | 星芒AI

ZHUHAI-1 OHS-04 是珠海一号卫星星座中的光学遥感卫星,主要用于高分辨率地球观测。该卫星由中国珠海欧比特公司研制,具备高精度成像能力,可应用于城市规划、环境监测、农业评估等领域。其数据支持多行业应用,提升了遥感服务的实时性和准确性,是商业遥感发展的重要组成部分。

基本信息
目录编号:
43443
目录名称:
ZHUHAI-1 OHS-04
国际标识:
2018-040E
轨道中心:
EARTH
卫星名称:
珠海一号 OHS-04星
卫星全名:
珠海一号 OHS-04星 (ZHUHAI-1 OHS-04)
卫星状态:
已陨落 最后检测时间 2024-11-05
发射日期:
2018-04-26 UTC
国别 :
中国 (CN)
星等 :
--
轨道信息
数据来源 国际轨道数据
星历时间: 2024-11-01T18:54:44+0800
轨道信息已过期409天
半长轴: 6545.429km
偏心率: 0.0008496
轨道倾角: 97.083°
近地点辐角 253.852°
升交点赤经 356.571°
平近点角 106.184°
近地点: 161.733km
远地点: 172.855km
周期: 87.835分钟
每日圈数: 16.394406
详细信息
平衡模式:
三轴稳定
覆盖范围:
全球
运营商:
珠海欧比特宇航科技股份有限公司
运营商所在国:
中国
制造商(研发单位):
珠海欧比特宇航科技股份有限公司
制造商所在国:
中国
使用方式:
暂无
卫星简介
珠海一号(Zhuhai-1)卫星星座是由珠海欧比特宇航科技股份有限公司发射并运营的商业遥感微纳卫星星座,整个星座由34颗遥感卫星组成,分别是2颗视频试验卫星、10颗视频卫星、10颗高光谱卫星、2颗高分光学卫星、2颗SAR卫星和8颗红外卫星。该卫星仍在工作。